Probability
0 1 2 2 2 2 2 2 3 4 3 1 0 0 0 0 0 0 0 0 0 0 0 0 0 0 0 0 0 0 0 0 0 0 0 0 0 0 0 0 0 0 0
0 0 1 1 1 1 1 1 2 3 2 1 0 0 0 0 0 0 0 0 0 0 0 0 0 0 0 0 0 0 0 0 0 0 0 0 0 0 0 0 0 0 0
0 0 0 0 0 0 0 0 1 1 1 0 0 0 0 0 1 0 0 0 0 0 0 0 0 0 0 0 0 0 0 0 0 0 0 0 0 0 0 0 0 0 0
0 0 0 0 0 0 0 0 0 0 0 0 0 0 0 0 0 0 0 0 0 0 0 0 0 0 0 0 0 0 0 0 0 0 0 0 0 0 0 0 0 0 0
0 0 0 0 0 0 0 0 0 0 0 0 0 0 0 0 0 0 0 0 0 0 0 0 0 0 0 0 0 0 0 0 0 0 0 0 0 0 0 0 0 0 0
0 0 0 0 0 0 0 0 0 0 0 0 0 0 0 0 0 0 0 0 0 0 0 0 0 0 0 0 0 0 0 0 0 0 0 0 0 0 0 0 0 0 0
0 0 0 0 0 0 0 0 0 0 0 0 0 0 0 0 0 0 0 0 0 0 0 0 0 0 0 0 0 0 0 0 0 0 0 0 0 0 0 0 0 0 0
0 0 0 0 0 0 0 0 0 0 0 0 0 0 0 0 0 0 0 0 0 0 0 0 0 0 0 0 0 0 0 0 0 0 0 0 0 0 0 0 0 0 0
0 0 0 0 0 0 0 0 0 0 0 0 0 0 0 0 0 0 0 0 0 0 0 0 0 0 0 0 0 0 0 0 0 0 0 0 0 0 0 0 0 0 0
0 0 0 0 0 0 0 0 0 0 0 0 0 0 0 0 0 0 0 0 0 0 0 0 0 0 0 0 0 0 0 0 0 0 0 0 0 0 0 0 0 0 0
0 0 0 0 0 0 0 0 0 0 0 0 0 0 0 0 0 0 0 0 0 0 0 0 0 0 0 0 0 0 0 0 0 0 0 0 0 0 0 0 0 0 0
0 0 0 0 0 0 0 0 0 0 0 0 0 0 0 0 0 0 0 0 0 0 0 0 0 0 0 0 0 0 0 0 0 0 0 0 0 0 0 0 0 0 0
0 0 0 0 0 0 0 0 0 0 0 0 0 0 0 0 0 0 0 0 0 0 0 0 0 0 0 0 0 0 0 0 0 0 0 0 0 0 0 0 0 0 0
0 0 0 0 0 0 0 0 0 0 0 0 0 0 0 0 0 0 0 0 0 0 0 0 0 0 0 0 0 0 0 0 0 0 0 0 0 0 0 0 0 0 0
0 0 0 0 0 0 0 0 0 0 0 0 0 0 0 0 0 0 0 0 0 0 0 0 0 0 0 0 0 0 0 0 0 0 0 0 0 0 0 0 0 0 0
0 0 0 0 0 0 0 0 0 0 0 0 0 0 0 0 0 0 0 0 0 0 0 0 0 0 0 0 0 0 0 0 0 0 0 0 0 0 0 0 0 0 0
0 0 0 0 0 0 0 0 0 0 0 0 0 0 0 0 0 0 0 0 0 0 0 0 0 0 0 0 0 0 0 0 0 0 0 0 0 0 0 0 0 0 0
0 0 0 0 0 0 0 0 0 0 0 0 0 0 0 0 0 0 0 0 0 0 0 0 0 0 0 0 0 0 0 0 0 0 0 0 0 0 0 0 0 0 0
0 0 0 0 0 0 0 0 0 0 0 0 0 0 0 0 0 0 0 0 0 0 0 0 0 0 0 0 0 0 0 0 0 0 0 0 0 0 0 0 0 0 0
0 0 0 0 0 0 0 0 0 0 0 0 0 0 0 0 0 0 0 0 0 0 0 0 0 0 0 0 0 0 0 0 0 0 0 0 0 0 0 0 0 0 0
0 0 0 0 0 0 0 0 0 0 0 0 0 0 0 0 0 0 0 0 0 0 0 0 0 0 0 0 0 0 0 0 0 0 0 0 0 0 0 0 0 0 0
0 0 0 0 0 0 0 0 0 0 0 0 0 0 0 0 0 0 0 0 0 0 0 0 0 0 0 0 0 0 0 0 0 0 0 0 0 0 0 0 0 0 0
0 0 0 0 0 0 0 0 0 0 0 0 0 0 0 0 0 0 0 0 0 0 0 0 0 0 0 0 0 0 0 0 0 0 0 0 0 0 0 0 0 0 0
0 0 0 0 0 0 0 0 0 0 0 0 0 0 0 0 0 0 0 0 0 0 0 0 0 0 0 0 0 0 0 0 0 0 0 0 0 0 0 0 0 0 0
0 0 0 0 0 0 0 0 0 0 0 0 0 0 0 0 0 0 0 0 0 0 0 0 0 0 0 0 0 0 0 0 0 0 0 0 0 0 0 0 0 0 0
0 0 0 0 0 0 0 0 0 0 0 0 0 0 0 0 0 0 0 0 0 0 0 0 0 0 0 0 0 0 0 0 0 0 0 0 0 0 0 0 0 0 0
Wind_Speed
1 1 1 1 2 2 3 3 3 3 3 4 4 4 4 4 4 4 4 3 4 4 4 4 5 4 4 4 4 4 4 5 8 5 2 2 2 3 4 3 4 4 5
1 1 1 0 0 1 2 2 2 3 3 3 3 4 4 4 4 4 4 4 4 4 4 4 4 3 4 3 3 4 4 5 6 8 4 2 3 3 4 4 4 4 4
1 1 1 0 0 0 1 1 1 2 2 2 3 3 3 3 3 4 4 4 4 4 4 4 4 3 3 3 3 3 3 3 4 6 6 3 3 2 3 4 4 4 5
1 1 1 1 1 1 1 0 0 1 1 2 2 2 3 2 2 3 3 3 3 3 3 3 3 3 3 3 3 3 3 3 3 4 5 3 3 2 2 3 5 4 5
1 1 1 1 1 0 0 0 0 0 0 0 0 0 1 1 1 2 2 3 3 2 1 1 1 0 1 1 1 2 3 3 3 3 4 3 3 3 3 3 5 6 5
1 2 1 1 0 0 0 1 1 1 1 2 1 1 1 1 0 1 2 2 2 2 1 0 0 0 1 2 2 2 2 3 3 3 3 4 5 4 3 4 4 5 5
1 1 1 1 1 1 0 1 1 1 1 1 1 1 1 1 1 2 1 1 1 1 1 0 1 1 1 1 2 2 2 3 3 3 4 4 4 4 5 5 5 6 7
1 1 1 1 2 1 1 1 1 1 1 1 1 1 1 1 2 2 2 1 0 0 1 1 0 1 1 2 2 2 2 2 3 2 3 4 4 3 4 5 6 7 6
2 2 2 2 2 2 2 2 1 1 1 1 1 1 1 1 2 2 2 1 1 1 1 0 0 0 2 3 1 2 2 2 4 4 5 6 7 6 5 3 3 4 6
3 3 2 2 2 2 2 1 1 1 2 2 1 1 1 0 1 2 2 1 1 0 0 0 0 1 1 2 0 1 2 3 3 4 4 5 5 4 4 3 3 4 5
2 1 1 1 2 2 1 1 1 2 2 2 1 1 1 0 0 2 1 0 1 1 0 1 1 1 2 2 1 1 2 3 2 2 3 3 3 3 3 3 3 3 5
1 1 1 1 1 1 1 1 1 2 2 1 1 0 1 1 1 1 1 0 0 0 1 1 1 1 2 2 2 3 4 3 1 2 2 2 3 3 3 4 4 5 5
0 0 0 0 0 0 1 2 2 2 1 1 1 1 0 1 0 1 1 0 1 0 1 1 1 2 2 2 3 3 2 1 1 2 3 3 3 3 4 4 4 5 6
1 1 0 0 0 0 0 1 2 2 2 2 2 1 1 1 1 0 0 0 1 1 1 1 2 2 2 2 2 2 2 1 1 2 3 3 3 3 3 3 4 5 5
1 1 1 1 1 0 0 0 1 1 2 3 2 2 2 2 2 1 0 0 1 1 0 1 1 1 1 1 1 1 1 1 2 2 2 3 3 3 3 3 3 3 4
2 2 1 1 1 1 0 1 1 1 1 1 1 1 1 1 1 1 1 1 1 2 1 0 1 1 1 2 2 2 2 1 2 2 2 3 3 3 4 3 3 3 4
3 2 2 1 1 1 1 1 1 1 2 2 1 1 0 0 0 0 0 1 1 2 1 1 1 2 2 2 2 2 3 2 2 2 2 3 3 3 3 4 4 4 4
2 2 2 2 2 2 1 1 1 1 0 1 1 1 1 1 1 1 1 2 1 1 1 1 2 2 2 2 2 2 3 2 2 2 2 3 3 3 3 4 4 4 4
2 2 2 2 1 1 1 1 1 1 1 0 1 2 2 1 2 3 3 1 1 1 1 1 2 2 2 2 2 2 2 3 3 3 3 3 3 3 3 4 4 5 4
2 2 2 2 2 2 1 1 1 1 1 1 1 1 1 2 1 2 2 0 0 1 1 2 2 2 2 2 2 2 2 3 3 3 3 3 3 3 4 4 4 4 4
2 2 2 2 1 2 2 2 2 2 2 1 1 2 1 0 1 1 1 1 1 2 2 2 2 2 2 2 2 3 3 4 3 3 3 3 3 3 4 4 4 4 4
2 2 2 2 2 1 2 2 2 2 2 2 1 2 1 0 1 1 2 2 2 2 2 3 3 3 3 3 3 4 4 4 4 4 4 4 3 4 4 4 4 4 4
2 2 2 2 2 2 2 2 2 2 2 2 1 1 1 1 2 2 3 3 2 3 2 2 3 3 3 3 4 4 5 6 5 4 4 4 4 3 3 4 4 4 4
2 3 3 2 2 2 2 2 2 2 2 2 2 2 2 2 3 3 3 3 3 3 3 3 3 5 6 5 4 4 5 6 5 5 6 5 4 4 4 4 4 5 5
2 2 3 3 3 2 2 2 2 2 2 2 2 3 3 3 3 3 3 3 4 4 4 4 4 5 7 8 7 6 7 9 8 5 4 4 5 5 5 5 5 4 5
2 2 2 2 2 3 3 3 3 3 3 3 3 3 3 3 3 4 4 3 4 4 5 4 5 6 7 7 8 9 9 9 8 7 5 4 5 5 5 5 5 5 5
Wind_Direction
167 182 188 204 205 205 205 210 210 212 212 210 211 214 212 213 213 215 221 219 223 232 236 237 244 243 243 242 240 242 245 247 262 272 255 267 271 288 300 296 294 295 300
190 184 174 191 204 207 225 229 215 211 213 212 207 208 213 210 209 212 217 215 218 227 236 238 245 250 252 251 246 247 248 247 255 270 278 272 265 280 296 302 307 304 296
164 163 156 159 163 249 275 269 235 219 215 210 205 207 211 210 208 214 215 214 218 225 229 232 240 237 250 259 260 260 261 263 257 265 274 273 268 289 304 306 303 298 303
139 147 204 228 211 210 212 244 267 223 214 217 216 206 208 204 202 205 207 209 215 221 225 229 232 226 241 256 259 267 273 271 270 272 276 282 285 306 317 310 312 311 306
172 176 239 263 256 219 136 109 80 43 22 5 153 171 206 204 210 197 200 200 203 210 211 230 259 290 292 275 279 283 279 272 275 275 279 289 294 315 315 313 306 311 301
203 219 226 225 247 302 82 89 88 72 63 66 65 69 45 357 71 142 174 190 190 192 196 230 331 347 340 337 324 307 281 271 276 276 280 284 291 299 307 306 308 316 305
212 230 232 211 206 219 171 120 131 126 98 94 85 97 74 26 65 91 123 178 180 197 200 203 354 7 338 314 316 314 307 302 282 267 271 278 290 302 309 304 296 290 285
214 234 232 223 227 211 181 178 181 153 145 132 101 92 75 37 54 59 76 129 159 120 113 135 188 337 356 343 322 313 309 323 318 296 280 287 297 304 292 289 292 294 285
226 235 234 222 217 205 203 205 189 156 142 124 109 100 101 53 64 69 79 99 103 86 66 66 141 121 7 11 348 311 313 326 348 338 320 316 321 322 322 314 307 303 295
250 253 249 229 215 215 220 213 180 155 148 127 100 95 98 45 65 78 91 135 144 126 50 28 18 27 9 17 325 296 302 316 337 335 332 330 325 320 323 300 288 289 293
289 284 273 254 233 218 210 177 148 136 131 126 114 66 31 0 77 71 70 148 196 182 245 304 315 5 358 6 359 303 310 324 322 315 315 321 324 320 319 315 298 277 277
284 267 279 287 252 191 163 158 145 145 147 151 140 110 7 358 31 39 36 31 38 198 255 275 291 347 353 355 359 354 347 342 326 318 313 310 314 316 315 312 306 298 283
288 252 267 277 266 199 177 165 150 150 159 176 181 204 285 339 5 29 7 40 47 315 280 283 316 351 2 4 8 358 346 328 320 307 300 298 304 306 312 312 312 309 297
211 210 172 138 39 22 177 172 173 181 184 189 196 212 235 278 306 340 3 64 80 38 342 2 10 22 22 14 4 347 329 310 293 282 288 294 302 307 310 315 313 319 312
211 200 181 171 182 184 16 255 213 224 206 206 208 200 196 229 250 260 269 253 198 185 98 11 359 350 346 332 330 318 318 321 310 306 298 300 305 310 309 314 310 313 305
204 207 198 192 188 177 135 24 107 150 153 185 185 187 247 245 240 240 254 242 178 136 98 189 254 276 281 291 298 305 308 312 314 311 301 297 301 305 306 308 307 302 301
210 211 200 193 188 188 186 180 179 94 106 94 84 84 28 94 59 279 189 117 97 108 126 208 238 255 267 275 277 279 283 291 293 286 287 289 293 296 297 300 304 304 303
215 210 199 196 194 193 195 207 198 183 197 338 1 20 18 33 46 57 84 80 36 27 206 222 240 250 257 261 266 271 280 290 285 278 274 276 279 283 288 292 296 298 303
204 202 195 188 186 189 186 194 196 184 185 241 340 1 10 25 51 48 45 52 218 254 256 247 247 250 255 258 262 264 266 270 273 274 273 274 277 280 281 284 290 296 296
210 201 186 178 176 176 177 183 182 182 187 209 244 287 338 21 15 3 14 0 250 264 269 263 261 256 254 255 257 258 261 261 266 267 269 271 273 271 277 283 286 288 287
192 188 179 178 188 186 189 192 188 189 198 215 247 260 251 226 261 283 281 268 252 256 262 264 266 264 258 253 249 249 253 258 255 255 262 268 271 272 274 276 279 279 283
186 186 184 186 188 193 205 197 189 194 201 213 253 276 273 338 257 262 268 270 262 254 250 250 257 254 246 242 243 246 248 251 251 249 253 260 263 267 271 274 281 285 284
185 184 186 190 188 192 197 191 191 199 209 221 237 262 271 254 256 260 264 268 270 270 263 253 258 266 262 252 243 238 242 245 243 239 245 256 261 263 265 270 274 279 280
185 189 193 195 191 191 190 195 200 208 214 223 235 245 252 255 261 266 270 273 274 274 271 263 258 263 268 265 255 248 247 249 245 237 234 241 252 258 258 261 265 266 271
184 189 191 189 187 188 191 201 209 216 224 231 239 247 254 258 263 268 272 273 274 274 276 272 266 266 267 266 263 257 257 260 256 242 230 229 240 247 251 256 260 263 265
187 188 189 187 191 194 198 208 216 221 229 236 241 246 251 256 261 266 269 271 274 277 279 276 270 270 272 272 269 268 264 262 256 244 227 224 231 242 244 250 254 257 264